Theta_e
340 341 341 343 344 344 344 344 344 343 339 336 336 335 334 332 334 335 333 332 331 333 334 335 335 334 334 332 331 327 328 332 334 336 336 335 335 335 336 337 337 338 338 338 339 338 334 331 335 337 337 335 332 332 329 326 324 323 325 325 329 332 334 333 330 326 325 327 327 324 324 326 326 327 327 329 329 328 331 332 332 332 332 333 334
342 342 340 344 345 344 344 344 343 342 339 337 337 337 335 334 335 335 335 334 333 335 335 335 334 334 333 330 328 326 330 335 335 335 335 335 334 335 337 338 337 338 338 338 339 339 336 334 335 337 335 333 331 328 323 318 315 314 315 316 321 326 328 327 324 321 320 320 321 324 326 329 331 332 331 332 331 329 331 332 332 333 333 333 334
341 341 339 344 344 343 344 344 344 342 339 336 337 337 336 337 337 336 337 336 335 335 335 335 335 334 330 330 330 327 332 335 334 334 334 334 334 334 337 338 337 337 338 338 339 338 337 337 336 335 333 332 330 326 320 315 312 311 311 313 316 317 317 318 318 317 320 323 325 329 332 334 335 335 334 334 332 331 333 333 333 333 334 334 334
341 340 339 345 343 344 344 343 344 342 338 336 337 336 337 339 338 337 337 335 335 335 335 335 335 331 327 331 333 331 333 334 334 334 334 334 334 334 337 338 338 339 339 339 338 336 337 337 335 334 332 330 329 328 324 319 316 315 315 316 316 315 314 315 316 316 320 325 326 327 331 333 335 335 335 334 332 333 335 334 334 334 335 335 334
341 339 340 344 343 345 344 343 344 341 339 337 337 336 339 340 339 337 337 336 336 336 335 336 334 329 328 332 335 335 334 333 333 334 335 335 335 334 335 337 339 340 339 339 336 334 336 336 334 333 332 330 329 331 330 328 328 328 329 328 327 325 321 317 317 318 320 322 324 327 329 331 333 334 334 334 334 334 335 335 335 334 334 334 334
340 339 341 343 343 345 343 344 343 341 338 337 337 337 340 340 340 338 338 338 336 336 336 337 334 329 331 333 334 335 335 333 332 334 335 335 335 335 335 335 337 339 339 338 335 333 335 336 333 332 332 331 331 333 333 333 334 334 334 334 334 334 331 326 320 320 322 324 327 331 333 334 334 334 335 335 336 335 335 334 334 334 334 333 334
338 339 341 342 344 345 343 344 343 342 338 338 338 338 340 341 341 339 339 338 336 338 338 338 334 331 332 333 333 332 333 330 329 334 336 335 335 335 334 333 335 337 337 337 335 334 336 335 333 332 332 332 331 332 332 333 333 333 333 332 334 334 335 333 328 322 323 327 329 333 335 334 334 335 336 335 335 335 335 334 334 335 335 335 335
337 340 341 342 344 344 344 344 343 342 338 339 339 339 340 340 341 340 339 337 338 340 340 338 336 334 333 333 333 331 329 326 329 334 335 335 335 335 334 334 335 336 337 336 335 335 335 334 333 333 332 330 330 331 331 331 330 331 331 331 332 333 334 334 332 326 324 327 329 332 335 333 332 334 336 335 335 335 335 335 335 335 335 335 335
335 340 341 342 343 343 343 343 343 341 340 340 339 340 340 340 341 341 339 338 340 341 339 338 337 337 334 334 334 332 330 327 331 335 335 335 335 335 335 335 336 337 336 335 336 335 334 333 333 333 331 329 330 330 329 329 329 330 331 331 332 333 334 334 332 327 326 327 327 329 331 332 334 336 336 336 336 336 336 335 335 335 335 335 334
333 338 340 342 342 343 343 343 342 341 342 340 339 340 340 341 341 341 340 339 341 340 339 339 339 338 336 335 334 333 332 330 331 333 335 336 336 335 335 336 336 337 336 335 336 334 333 333 333 331 329 329 329 328 328 330 330 331 331 332 333 333 332 332 329 326 327 327 328 328 329 333 336 337 336 336 337 336 336 335 335 335 334 334 334
332 337 339 341 342 342 342 342 342 341 342 341 339 340 341 341 340 341 340 340 340 339 339 339 339 338 336 335 334 333 332 330 330 332 335 335 335 335 335 336 336 337 336 335 335 333 332 332 330 329 329 329 328 328 330 331 331 331 331 332 333 333 331 329 327 327 328 328 328 329 332 336 337 337 337 337 337 336 336 335 335 334 334 334 334
335 338 339 341 342 342 341 342 341 341 342 341 339 339 340 340 341 341 340 340 340 339 339 338 339 337 336 335 332 330 331 331 330 332 334 335 335 335 336 336 336 336 335 335 333 331 330 329 328 328 328 328 328 329 331 332 332 331 331 332 333 333 331 328 328 329 329 329 329 331 335 337 337 337 337 338 336 335 335 335 334 334 334 334 334
336 338 339 341 342 342 341 341 341 341 341 340 339 339 340 340 341 340 340 340 339 340 339 339 339 337 336 335 330 325 327 329 330 332 333 335 335 336 336 336 337 335 335 335 331 329 329 328 328 328 328 328 329 330 332 333 332 331 331 332 333 332 330 329 329 329 330 330 331 333 335 336 336 337 337 337 335 335 335 334 334 333 334 333 333
336 339 339 341 342 341 341 341 341 341 341 340 339 339 340 340 341 341 340 340 339 340 339 339 339 337 337 335 330 323 321 325 329 330 333 335 335 337 336 337 336 333 333 333 329 329 329 328 328 328 328 329 329 331 333 333 332 331 331 332 333 332 330 330 330 330 331 331 331 332 334 336 336 337 337 336 334 335 334 334 334 333 333 333 333
333 337 339 340 341 340 340 341 341 341 340 340 339 339 340 340 341 341 340 340 340 340 339 339 338 338 338 334 331 324 320 324 329 331 334 335 335 336 336 337 336 332 331 330 329 329 329 329 328 328 328 328 328 331 334 334 333 331 331 332 333 331 331 330 330 331 331 331 333 335 336 336 336 336 335 334 334 334 334 334 333 333 333 333 333
334 336 338 340 340 340 340 340 340 340 340 340 339 339 339 340 340 340 340 340 340 340 339 339 338 338 337 335 331 326 323 326 330 332 335 336 335 336 335 336 335 332 329 329 329 329 330 329 329 328 328 328 328 330 335 336 334 332 332 331 332 331 331 332 331 331 332 332 334 335 335 335 334 334 334 334 334 333 333 333 333 333 332 332 332
335 336 339 340 340 340 340 341 340 340 340 339 338 338 339 340 340 340 340 340 341 340 340 339 338 338 337 335 331 326 326 328 330 331 334 335 336 336 336 335 334 330 327 329 329 329 329 329 329 328 328 328 327 328 333 337 336 334 333 333 333 333 333 333 333 332 332 333 334 334 334 334 334 334 334 334 333 333 333 333 333 333 332 332 331
335 336 338 340 340 341 341 341 341 341 340 339 339 339 339 339 340 340 340 341 341 340 339 339 338 338 335 334 330 326 328 328 329 330 331 334 336 336 336 334 333 330 327 329 329 329 330 329 329 328 329 329 328 327 329 334 337 337 336 336 336 335 334 333 333 333 333 333 333 334 334 334 334 334 334 333 333 333 333 333 333 332 331 330 330
337 338 339 340 340 341 341 341 341 340 340 340 340 339 339 339 340 340 341 341 340 340 339 339 338 337 334 333 331 328 328 328 328 329 331 333 335 335 335 334 334 331 328 329 329 330 330 329 330 329 329 328 328 327 327 329 333 336 337 337 336 335 334 334 334 333 334 334 334 335 334 334 334 333 333 333 333 332 333 332 331 331 330 329 328
339 340 341 340 340 341 341 341 341 340 340 340 340 340 339 339 340 340 341 340 340 340 339 338 338 336 334 332 331 327 325 328 329 329 331 333 334 335 335 334 334 331 328 329 329 330 330 330 330 329 329 329 328 327 327 326 327 333 336 336 336 335 335 334 334 335 336 336 335 335 334 334 334 333 333 333 333 332 332 331 331 330 328 327 325
341 341 341 340 340 341 341 341 341 340 340 340 340 340 339 339 340 340 341 340 340 340 339 338 338 335 333 330 329 324 319 324 330 330 329 330 332 334 335 335 334 331 329 330 330 330 330 329 330 330 330 329 328 326 326 326 326 331 335 336 336 335 335 334 335 335 336 336 335 335 334 334 333 333 333 333 332 331 331 330 328 327 325 323 317
341 341 340 340 340 341 341 341 341 341 340 340 340 340 340 340 341 340 340 340 340 340 339 339 336 332 328 324 320 316 312 317 325 328 326 326 328 329 332 334 333 331 329 330 329 330 330 330 330 330 330 329 327 324 325 327 327 333 336 336 336 335 335 335 335 335 335 335 335 334 334 334 334 334 333 332 331 330 329 327 325 323 319 313 306
340 341 340 340 340 341 341 340 340 341 340 339 340 340 339 340 341 341 340 340 340 340 339 338 332 323 319 315 312 311 311 312 318 324 323 323 325 326 329 331 332 330 329 330 330 330 330 330 330 330 330 329 325 322 326 327 329 335 337 336 336 335 335 334 334 334 335 335 334 333 333 333 333 333 332 331 330 329 327 323 320 315 308 303 303
340 340 340 340 340 341 341 340 340 340 339 339 339 340 340 340 341 340 340 340 340 339 338 335 325 317 313 310 309 308 310 312 318 325 324 323 324 327 329 329 330 329 329 330 329 330 330 330 330 330 329 326 322 323 327 328 331 337 337 336 335 334 333 332 332 332 333 333 333 333 333 333 332 331 331 331 329 327 323 317 310 305 301 300 307
340 339 339 340 341 341 340 339 340 340 339 339 339 340 340 341 341 340 340 340 340 339 337 331 320 315 311 309 308 308 311 314 319 324 324 323 324 326 327 328 329 329 329 330 329 329 329 330 329 328 325 322 322 326 329 330 333 337 336 335 334 331 330 329 329 329 330 330 330 330 329 329 330 331 330 328 326 322 315 308 303 302 302 304 310
339 339 339 339 340 340 340 339 340 339 337 338 340 340 340 341 341 340 340 340 340 337 336 328 318 317 316 314 313 311 313 315 318 320 321 322 323 323 324 325 327 328 328 328 328 328 328 327 325 323 322 322 324 326 329 331 333 336 336 333 331 328 327 327 326 325 325 325 323 323 324 325 327 328 328 325 321 314 309 306 305 306 308 309 312
339 339 339 339 338 339 339 339 340 339 337 338 340 340 340 341 341 340 339 340 339 337 334 326 320 325 327 326 325 320 318 317 317 317 317 319 320 322 323 322 323 324 324 324 324 323 323 322 322 324 326 327 326 326 329 332 334 336 335 331 329 327 326 325 324 323 322 319 317 315 315 317 320 322 324 322 317 312 311 313 313 312 312 313 313
339 339 339 339 338 339 340 339 340 339 338 338 340 340 340 341 341 340 339 339 339 337 332 323 323 333 335 334 335 333 330 327 324 320 318 318 318 318 319 320 320 320 320 321 321 321 322 323 327 330 330 330 329 329 330 332 335 335 333 330 327 326 325 324 323 321 320 317 313 308 306 307 309 313 317 319 318 317 317 317 316 316 315 315 315
339 339 339 339 337 338 339 339 339 339 338 338 339 340 340 341 340 339 339 340 339 337 331 323 324 333 337 337 337 338 337 335 332 329 327 325 323 321 319 318 318 319 322 326 328 329 329 330 333 332 331 332 332 332 331 333 335 334 332 329 327 326 325 324 323 321 319 316 312 307 304 302 304 309 314 317 320 320 319 318 317 317 317 317 316
338 339 338 339 338 338 338 338 338 339 339 338 339 340 340 340 339 339 338 339 338 336 331 324 323 327 333 337 337 338 338 337 336 335 334 333 332 331 329 326 324 327 331 333 335 335 334 333 334 332 332 333 333 333 332 334 335 332 330 328 326 325 325 324 323 321 319 317 313 308 303 302 303 308 314 318 320 320 319 319 318 317 317 317 316
338 338 338 338 339 338 337 337 338 339 338 338 339 340 340 339 339 339 338 337 337 336 331 326 323 320 327 336 337 337 337 337 338 337 336 336 337 336 336 335 333 335 336 336 337 336 336 335 334 333 333 334 333 332 332 334 334 331 329 328 326 325 325 324 323 320 318 316 314 309 303 302 305 309 315 319 319 319 319 318 318 317 317 316 316
337 338 338 338 339 338 337 337 339 338 339 339 338 339 339 339 339 338 337 336 336 335 331 327 323 319 326 336 337 337 338 337 338 338 338 337 338 338 338 337 337 337 337 337 337 336 336 336 335 334 334 334 333 333 333 334 332 329 328 327 325 325 324 323 322 319 318 316 313 308 303 303 307 311 314 317 318 318 318 318 318 317 316 316 315
338 338 338 338 339 338 337 337 339 339 339 338 338 339 339 338 339 337 336 335 335 334 331 326 323 325 332 336 337 337 338 338 338 338 339 338 338 338 338 338 338 338 337 337 337 336 336 337 335 334 334 334 333 333 334 333 331 328 327 326 325 324 323 322 321 318 316 313 309 305 302 303 307 311 313 315 316 317 317 317 317 316 316 316 315
338 337 338 338 338 338 337 338 338 338 338 338 338 339 338 338 338 336 334 334 334 333 330 326 326 332 335 336 337 337 337 338 338 338 339 339 339 339 338 338 338 338 338 337 337 336 336 338 335 333 335 334 333 334 333 333 330 327 326 325 325 324 324 322 318 315 313 309 306 303 301 302 304 307 309 310 311 313 315 315 314 314 314 313 313
338 337 337 338 338 339 338 338 338 338 338 338 339 339 338 338 337 335 334 335 334 333 330 326 329 335 335 336 337 337 337 338 338 338 339 339 339 339 338 338 338 338 338 337 337 337 337 338 337 334 334 334 334 334 334 333 330 327 326 324 324 325 323 320 315 312 309 306 303 300 301 301 302 302 302 303 304 305 307 309 311 312 311 310 311
337 337 337 338 339 339 338 338 338 338 338 339 339 339 338 338 336 334 334 335 334 333 329 327 332 335 335 336 337 337 337 337 338 339 339 339 339 339 339 338 338 338 338 338 338 338 337 337 336 334 333 333 333 334 334 333 329 327 325 324 324 323 320 315 312 309 305 302 300 298 299 299 299 299 299 299 300 301 302 304 307 309 308 308 309
337 337 337 337 338 338 338 338 338 338 338 339 339 339 338 337 336 334 334 335 334 334 330 328 333 336 336 336 337 337 338 338 339 339 339 339 339 339 338 338 338 338 338 338 338 337 337 336 334 332 333 332 332 333 333 332 329 326 324 324 323 320 315 312 309 306 303 300 298 297 298 299 299 299 299 299 299 301 304 304 305 306 307 307 308
336 336 336 336 337 337 338 338 339 338 338 339 339 339 338 337 336 335 335 335 335 334 331 329 333 336 337 337 337 337 337 338 338 339 339 339 339 338 338 338 338 338 338 338 338 337 336 335 333 331 332 332 331 332 332 331 328 324 323 323 320 315 312 310 308 306 304 302 300 299 299 300 301 300 300 300 300 301 303 303 303 304 305 305 305
337 337 336 336 336 336 338 339 339 339 338 339 339 338 338 338 338 337 335 335 336 335 333 331 334 336 337 337 337 337 337 338 338 339 339 339 339 338 338 338 338 339 339 338 338 336 334 334 333 330 329 330 330 331 331 330 326 324 323 320 315 312 310 309 308 307 306 305 303 301 302 302 302 302 301 301 301 301 302 302 302 303 303 302 301
337 337 337 336 336 336 338 339 339 339 339 339 339 339 339 339 339 339 337 337 337 337 334 333 335 337 337 337 337 337 338 338 338 339 339 339 339 338 338 338 339 339 339 338 337 335 334 333 332 330 328 327 328 329 330 329 325 320 318 315 311 310 309 309 309 308 308 307 306 305 304 304 303 303 302 301 301 301 302 303 303 303 303 301 300
337 337 337 337 336 337 338 339 340 339 339 339 339 339 340 340 340 339 338 337 339 338 335 334 335 337 338 338 337 337 338 338 339 339 340 339 338 337 337 338 339 339 338 338 336 334 333 332 330 328 328 326 324 324 326 325 319 314 312 311 310 310 309 309 309 309 309 308 307 306 305 305 304 304 303 302 301 301 302 303 303 303 302 300 299
338 337 338 337 337 337 338 339 340 340 340 339 339 340 340 341 340 339 338 338 340 338 336 335 336 337 338 338 337 337 338 338 339 340 340 339 337 337 337 338 339 338 337 336 334 333 332 331 329 326 324 325 323 320 321 320 315 310 309 309 309 309 309 308 309 309 309 309 308 307 306 305 304 304 303 302 301 302 302 303 304 303 302 300 299
338 338 338 337 337 337 338 339 340 340 340 340 340 340 340 341 341 339 337 339 340 338 337 337 338 338 338 337 337 337 337 338 339 340 340 338 337 337 336 338 339 337 336 334 333 332 331 330 329 327 323 321 319 318 318 318 315 311 310 312 312 311 310 308 308 308 308 308 308 307 306 305 304 304 303 301 301 302 302 303 304 302 301 299 300
338 338 338 338 337 337 338 339 340 340 340 340 340 340 341 341 341 339 338 339 340 339 339 339 339 338 338 338 337 337 337 338 339 340 340 338 337 336 337 338 338 336 335 334 333 331 331 329 328 328 325 320 316 316 317 317 317 315 313 314 311 310 313 311 307 308 307 307 307 308 306 304 304 304 302 301 301 302 303 304 303 301 300 300 301
338 338 338 338 338 337 337 338 339 340 340 340 340 340 340 340 340 339 339 339 339 340 339 339 339 338 338 337 337 337 338 339 339 340 339 338 337 336 336 337 337 336 334 333 333 332 331 330 328 328 327 324 318 316 317 317 317 319 317 315 311 313 318 312 307 307 307 307 306 307 307 305 304 304 302 302 302 302 303 303 302 300 300 301 301
338 338 338 338 338 338 337 338 339 339 340 340 340 340 340 340 340 339 338 338 338 338 339 338 338 338 337 337 337 338 338 339 340 340 339 338 337 336 336 336 335 335 334 333 333 332 331 330 329 328 327 327 324 318 317 317 317 317 317 315 313 317 318 310 306 308 306 306 306 306 307 305 304 304 303 302 302 303 303 303 301 300 300 301 301
338 339 338 338 338 338 337 337 339 339 339 339 340 340 340 340 339 339 338 337 337 337 338 338 338 338 337 337 338 338 339 340 340 339 338 338 338 336 336 335 335 334 333 333 332 332 331 329 329 329 327 327 326 322 319 318 316 315 315 314 314 318 316 307 307 310 308 307 305 305 306 305 304 304 304 304 303 303 303 302 301 300 301 301 301
339 339 338 338 338 338 338 337 338 339 339 339 339 339 340 339 339 338 338 338 338 337 338 338 337 338 338 338 338 339 339 339 340 339 338 338 338 337 335 335 334 334 333 332 332 332 331 330 328 328 328 326 326 325 322 320 318 316 314 314 317 319 317 309 305 307 311 311 308 306 305 304 305 305 305 305 304 303 303 302 301 301 301 301 301
339 339 338 339 339 338 338 337 338 339 339 338 339 339 339 339 338 338 338 338 338 338 338 337 337 338 338 339 339 339 339 339 339 338 338 338 337 337 335 334 334 333 333 332 332 332 331 330 329 328 327 326 326 325 324 322 321 319 316 315 317 318 316 311 305 304 309 312 311 309 306 305 305 305 304 303 303 304 303 302 301 301 301 301 301
339 339 339 339 338 338 338 337 338 338 338 339 339 339 338 338 338 338 338 337 337 337 337 337 337 338 338 339 339 338 339 338 338 337 337 337 336 336 335 334 334 333 333 333 332 331 331 330 329 328 327 326 325 324 324 324 322 321 319 316 317 317 314 311 307 306 307 309 310 309 306 306 306 304 303 302 304 305 303 301 301 301 301 301 301
339 339 339 338 338 338 337 337 338 338 338 339 338 338 338 338 338 338 337 337 337 337 337 337 337 337 337 338 338 338 338 338 338 337 336 336 335 335 334 334 334 333 333 332 331 331 331 330 328 327 326 326 326 325 323 323 322 321 320 318 318 318 317 315 312 310 308 308 311 309 305 305 305 304 303 304 304 304 302 301 301 301 301 301 300
Wind_Speed
27 29 27 26 24 23 21 21 20 19 19 19 20 20 21 22 22 22 22 21 20 19 18 17 16 15 13 12 12 12 14 15 15 16 16 15 15 13 13 14 13 13 13 13 12 10 9 9 9 10 9 9 11 12 14 16 17 17 16 16 15 14 13 13 14 14 15 15 15 14 14 15 16 16 16 16 15 15 15 14 15 16 17 15 14
29 29 29 27 25 24 22 21 20 20 20 20 21 20 21 21 22 22 21 20 19 18 17 16 15 14 13 12 12 13 16 17 16 16 16 16 15 14 14 13 12 12 13 13 13 12 11 10 10 10 10 11 12 13 15 17 18 18 17 17 16 15 14 14 14 15 16 16 16 15 15 15 15 15 16 15 15 16 15 14 15 16 15 15 13
28 29 30 28 26 25 23 22 21 20 21 21 21 20 21 21 22 22 20 19 19 18 16 16 15 14 13 13 14 15 17 18 17 16 16 16 16 15 14 12 11 12 13 13 13 12 12 12 11 10 11 12 13 14 16 18 18 18 17 16 15 15 15 15 14 15 15 15 15 15 14 14 14 14 14 14 14 15 15 15 15 15 13 13 12
28 31 29 27 26 25 24 23 22 21 21 21 21 21 20 20 21 21 20 19 19 17 16 16 15 14 14 15 16 16 18 18 18 17 16 16 15 14 14 11 11 13 14 13 11 11 12 12 11 11 11 13 14 14 16 17 18 17 17 16 15 15 14 14 14 14 14 14 15 15 15 14 14 13 13 13 14 13 13 13 14 14 12 12 12
29 31 29 28 26 26 25 23 22 21 21 22 21 20 20 20 20 20 20 19 18 17 16 15 14 15 15 15 15 15 16 16 17 18 16 15 15 14 14 13 12 13 14 12 10 11 12 12 12 11 11 13 15 15 15 15 15 15 14 14 13 12 12 13 13 13 13 14 15 15 16 15 14 13 13 13 13 13 12 12 12 12 12 12 12
30 31 29 28 27 26 25 24 22 22 22 21 21 20 20 19 19 20 19 18 17 16 15 14 14 16 15 15 14 14 14 13 16 18 17 16 15 14 14 14 12 12 12 11 11 13 13 12 12 12 11 12 14 14 14 13 13 12 11 11 10 9 9 10 11 12 13 13 14 15 15 15 14 12 13 12 12 12 12 12 12 12 12 12 12
31 31 29 29 28 27 25 24 22 22 22 21 21 20 20 19 19 19 18 17 17 16 14 13 14 16 15 15 14 13 13 12 17 20 17 17 15 14 14 14 13 12 12 12 12 14 13 12 12 12 11 11 12 13 13 12 11 10 9 8 7 7 6 7 9 11 12 12 13 14 14 13 13 11 11 11 11 11 11 11 11 11 11 11 11
31 30 29 29 28 27 25 24 22 22 22 21 20 20 21 20 19 18 17 18 17 16 14 13 13 14 14 14 13 12 12 14 19 20 18 17 16 14 14 15 14 13 13 13 13 14 13 12 12 12 12 12 12 12 11 9 8 7 7 6 6 6 6 7 8 10 11 12 12 14 13 12 11 10 10 9 10 10 11 11 11 11 11 10 11
33 31 28 29 28 27 25 24 22 22 22 21 20 20 20 20 20 17 17 18 17 16 14 13 12 12 13 13 12 11 12 16 19 18 18 17 16 15 15 16 15 14 13 14 14 13 13 13 12 12 13 13 12 11 10 8 7 6 6 6 7 7 7 9 10 11 12 12 12 13 13 12 11 9 9 8 9 10 11 11 11 11 11 11 11
35 31 29 29 28 26 25 24 22 22 21 21 20 20 20 20 20 18 18 17 16 15 14 13 11 10 11 12 11 11 11 15 18 18 19 16 16 15 16 16 15 14 13 14 14 12 13 13 13 13 14 13 12 11 9 8 7 6 6 7 8 9 11 12 13 13 13 12 12 12 12 11 10 8 7 8 9 10 11 11 11 11 12 11 11
35 32 30 30 28 26 26 24 22 22 21 21 20 20 20 20 19 19 18 17 16 15 15 13 11 10 10 10 10 11 11 13 16 19 19 16 16 16 16 17 15 13 13 14 12 12 13 14 15 15 14 13 12 11 10 8 7 7 7 8 9 10 13 15 15 14 13 13 12 12 11 10 9 7 7 8 10 10 10 10 11 11 11 10 11
33 32 31 30 28 26 27 24 22 22 21 21 21 21 20 19 19 19 18 17 16 15 14 13 11 10 9 10 9 10 12 12 14 18 19 17 17 16 16 16 14 12 12 13 12 13 14 16 17 16 14 13 13 11 10 9 9 9 8 9 10 12 15 16 15 14 13 12 12 12 11 10 8 8 8 8 9 10 9 10 11 11 11 11 11
33 32 31 30 28 27 27 24 23 22 22 22 21 21 20 19 19 18 18 17 17 15 14 13 11 10 9 9 8 10 11 13 13 16 19 18 17 16 16 15 12 12 12 12 12 14 15 17 17 15 14 13 13 12 11 10 10 10 10 11 12 14 16 15 14 14 13 12 11 11 11 10 8 8 8 8 9 10 10 10 11 11 11 12 12
34 32 31 31 28 26 27 24 24 23 22 22 21 21 20 19 19 18 17 17 16 15 14 13 11 10 9 8 8 9 11 13 13 16 19 17 16 15 16 14 12 12 12 12 13 15 16 17 16 15 14 14 13 12 12 12 12 12 13 12 13 15 16 15 14 13 13 12 12 12 12 11 9 8 8 9 10 10 10 11 11 12 13 14 14
34 32 31 31 28 26 26 25 25 23 22 22 22 22 21 20 19 18 17 17 16 15 14 13 11 10 9 7 7 8 11 13 13 16 18 16 14 15 16 14 12 12 12 13 13 14 15 16 15 14 14 14 14 13 13 13 13 14 14 14 15 15 14 14 14 13 13 12 12 12 12 11 9 8 9 9 10 10 10 12 13 13 14 14 15
32 32 31 30 28 27 26 25 24 24 23 22 23 22 21 20 19 18 17 17 16 15 14 12 12 10 9 8 7 8 11 12 13 15 16 14 15 16 15 14 13 13 13 14 14 14 15 15 13 13 14 14 14 13 13 14 14 14 15 15 15 14 12 12 13 13 12 13 12 12 12 10 9 9 9 10 10 11 12 12 13 14 14 14 15
30 30 31 30 29 28 26 25 24 23 23 22 22 22 22 20 19 19 17 16 15 15 13 12 11 10 8 7 7 8 10 12 12 14 15 15 15 16 15 14 13 13 15 15 14 14 14 13 12 12 13 13 13 13 13 13 13 13 14 14 13 12 11 10 11 12 12 13 13 13 12 11 10 10 10 11 11 12 12 12 13 13 13 13 13
29 31 31 30 29 28 27 25 24 24 23 23 22 21 21 20 20 19 17 16 15 15 13 12 11 9 8 7 7 8 10 11 12 13 14 15 15 16 14 13 12 13 16 15 14 14 13 12 11 11 11 12 11 12 12 12 12 11 12 12 11 11 10 9 11 11 12 13 13 13 12 11 11 11 11 11 11 11 12 12 12 12 12 11 10
28 31 31 31 30 29 28 26 25 25 24 24 23 21 20 20 20 18 17 16 15 15 14 12 11 9 8 8 8 8 10 10 11 13 14 14 15 15 13 13 12 12 16 15 14 14 12 11 10 10 10 10 10 10 11 10 10 10 10 10 10 9 9 10 11 12 12 12 13 13 11 11 11 11 11 11 11 11 12 12 12 11 10 9 9
27 30 30 31 31 29 29 28 27 26 26 25 24 22 21 20 19 18 17 16 15 14 13 12 11 9 9 9 8 8 10 11 11 11 13 14 15 14 13 13 12 13 16 15 14 14 12 11 10 9 9 9 8 8 9 9 9 9 8 8 8 8 9 10 11 12 13 12 12 12 11 10 10 10 10 11 10 10 12 12 11 10 9 9 10
27 29 31 32 31 30 30 30 28 27 26 26 25 23 22 20 20 18 17 16 15 14 13 12 11 10 9 9 9 9 10 12 11 10 12 13 15 15 14 14 12 13 16 15 15 13 12 11 10 9 8 8 7 6 8 8 9 9 8 8 8 9 10 10 11 13 13 12 12 11 10 10 9 9 10 10 9 10 10 10 9 9 9 10 10
27 28 31 33 33 32 31 30 29 28 27 26 26 24 23 22 20 19 18 16 15 14 13 12 11 11 9 9 9 9 10 12 12 11 11 11 13 14 14 14 13 14 16 15 14 13 12 11 9 8 7 6 5 5 7 8 9 9 8 8 8 9 10 10 12 13 13 12 12 10 10 10 9 9 9 9 9 9 9 8 9 9 9 9 9
29 30 31 32 34 33 32 32 30 29 28 27 27 25 24 23 22 20 19 17 16 15 14 13 11 10 9 8 8 9 11 12 12 11 10 11 11 11 12 12 13 14 16 15 14 13 12 10 9 7 6 5 4 5 6 8 9 10 9 8 8 9 10 11 12 13 13 12 11 9 8 9 9 9 10 9 8 8 8 8 8 9 9 9 11
30 31 31 32 33 33 33 32 30 30 29 28 27 26 25 23 23 21 20 18 17 16 15 13 10 9 8 8 9 11 12 13 12 11 10 11 10 10 10 11 12 15 15 15 13 12 11 9 8 6 4 3 4 5 6 8 9 9 9 8 9 10 10 11 11 11 11 10 9 7 7 8 7 9 9 8 5 5 7 8 9 9 10 12 13
29 30 31 33 33 33 34 32 30 29 30 29 28 27 26 24 23 22 21 19 18 17 15 13 11 10 9 10 11 13 13 14 13 12 11 10 10 10 10 11 13 14 15 14 12 11 10 8 7 5 4 5 6 5 6 8 9 9 9 9 10 11 11 11 11 10 9 8 8 6 6 7 8 9 7 6 5 6 8 9 10 11 12 14 15
27 29 31 34 34 33 34 33 30 30 31 30 28 27 26 25 24 23 22 20 19 18 16 14 13 12 12 12 13 14 15 14 13 12 12 11 9 9 10 11 12 13 13 11 10 10 9 8 7 6 6 7 6 5 6 9 10 9 9 10 11 11 11 11 11 11 10 9 8 7 7 8 9 10 8 9 9 8 10 11 12 13 15 16 16
24 26 30 33 35 35 34 34 32 31 31 31 29 27 27 26 25 24 23 22 20 19 17 16 15 14 14 14 15 15 15 14 13 12 12 11 10 9 9 9 10 10 10 10 9 9 8 8 8 7 7 7 7 6 7 9 10 10 10 11 11 12 12 12 12 11 10 10 9 8 7 8 9 10 10 12 11 11 13 14 14 14 15 17 16
21 24 29 32 35 36 35 35 33 31 32 32 30 28 27 27 26 24 23 22 20 19 18 17 17 17 16 15 15 14 14 14 12 12 11 10 9 9 9 9 9 9 9 9 10 9 9 8 8 7 7 7 7 7 9 11 11 10 11 12 12 12 13 12 11 11 10 11 10 9 8 9 9 10 11 12 13 13 14 14 14 14 15 16 16
23 25 28 30 34 36 35 35 33 31 32 32 30 29 28 27 27 25 23 21 19 20 18 18 19 18 16 15 14 13 13 12 11 11 10 10 9 8 8 9 9 10 10 10 10 9 8 8 6 5 6 7 7 8 11 13 13 12 12 13 13 13 12 11 10 10 10 10 11 10 9 9 11 12 13 14 14 14 14 14 14 14 15 15 15
28 27 29 30 33 35 35 35 34 32 32 33 31 29 28 27 27 26 24 22 21 21 19 18 20 20 17 15 15 14 12 11 10 10 9 9 9 8 8 8 9 9 9 9 9 8 8 7 5 4 6 7 8 11 14 15 15 14 13 13 14 13 11 10 9 9 9 9 9 9 8 9 11 13 14 14 14 14 14 14 14 14 14 15 15
32 31 31 31 32 34 36 35 34 33 33 33 31 30 29 28 28 27 25 23 22 21 20 19 19 21 19 16 15 14 12 11 9 8 8 8 8 7 7 7 8 8 8 8 7 7 7 6 4 4 6 8 11 13 14 16 16 16 14 14 14 12 11 9 8 8 7 7 7 8 8 9 11 12 14 14 14 13 13 13 13 14 14 14 14
36 36 34 33 33 35 36 35 35 34 33 33 32 30 29 28 27 27 25 23 22 21 20 20 20 21 20 17 15 14 13 11 9 8 7 7 7 7 7 7 7 7 8 7 7 7 6 6 5 6 7 10 13 14 14 16 17 17 15 14 13 12 10 9 8 7 6 6 6 6 7 9 11 12 14 14 14 13 13 13 13 13 13 13 12
36 34 33 34 34 36 37 36 36 35 34 34 32 30 30 28 27 27 25 23 22 22 21 20 21 22 20 18 16 14 13 11 10 8 7 6 6 7 7 7 7 8 8 8 8 8 7 7 7 8 9 11 14 15 15 16 18 17 16 14 13 11 10 8 7 6 5 6 6 7 7 9 11 12 13 13 13 13 13 12 12 12 11 11 11
33 32 34 34 35 36 36 35 36 36 34 34 32 30 30 29 27 26 25 24 23 22 21 21 22 22 20 19 16 14 13 12 11 9 7 7 7 7 7 8 8 8 9 9 9 9 8 8 9 10 10 12 14 16 17 18 18 18 16 14 13 11 9 7 6 6 6 6 6 7 7 8 9 10 11 11 11 11 11 11 11 11 10 10 10
34 35 36 35 34 35 35 35 36 37 34 34 33 31 31 30 27 26 25 24 23 23 21 22 23 22 20 19 17 15 13 12 11 9 9 8 8 8 8 9 9 9 10 10 9 9 9 9 10 12 13 14 16 18 17 18 19 18 16 15 12 10 8 7 7 7 6 6 6 7 8 8 8 9 10 11 11 11 10 10 10 10 11 11 11
36 37 36 35 35 34 34 34 35 37 35 34 33 32 31 30 27 25 25 24 24 23 22 23 24 22 20 18 17 15 14 13 12 11 10 10 10 9 9 10 10 10 11 10 10 10 9 10 10 12 14 16 18 19 19 19 20 19 17 15 12 10 9 8 7 7 6 6 7 9 10 10 10 11 13 14 15 14 13 12 12 12 12 12 12
36 36 37 37 36 34 34 34 35 36 36 34 33 31 30 29 27 25 24 24 24 23 23 24 24 22 20 19 17 16 15 14 13 12 12 11 10 10 10 11 12 12 12 11 11 10 10 11 13 14 15 17 19 20 20 20 20 19 17 14 11 10 8 8 7 6 6 7 9 11 12 13 13 15 15 16 17 16 15 13 13 13 12 11 11
33 35 37 38 37 36 34 34 35 36 36 34 31 30 30 28 26 24 24 24 24 23 23 25 25 22 21 19 18 17 15 14 14 14 13 12 11 10 10 12 13 13 13 13 11 10 10 11 15 17 16 17 19 21 22 21 21 20 17 14 11 10 8 7 7 7 6 7 10 11 12 13 14 14 15 15 16 16 14 13 13 12 11 10 9
32 33 35 36 37 36 35 35 36 36 35 33 30 30 30 28 27 25 24 24 24 23 24 25 25 23 21 19 18 18 16 15 15 15 14 13 12 11 11 13 14 14 14 14 13 12 12 12 15 18 18 18 19 21 22 22 21 19 16 14 11 9 8 7 7 6 6 7 9 10 11 11 12 12 12 12 13 13 13 12 12 11 9 9 9
32 32 32 34 36 36 36 35 36 36 34 31 30 30 30 29 28 27 26 26 25 24 25 25 25 23 21 19 19 18 17 16 16 15 14 13 13 13 13 15 16 15 16 16 15 14 13 14 16 18 20 20 20 21 22 23 22 18 15 14 11 9 8 8 7 6 6 6 7 8 9 9 9 9 9 9 9 10 10 9 8 7 7 8 8
30 32 33 35 37 37 36 36 35 35 34 33 33 33 32 31 30 30 30 28 27 26 25 26 25 23 21 20 20 19 18 17 17 16 15 14 14 14 15 17 17 16 17 16 15 15 14 16 17 20 21 22 23 22 23 24 22 16 12 11 10 10 9 9 8 7 6 6 6 7 7 8 7 7 7 7 9 9 8 7 7 6 6 7 8
33 36 37 36 35 35 35 35 35 35 36 36 36 35 34 33 30 30 31 30 29 28 27 27 25 23 22 21 21 20 19 18 17 16 15 15 15 16 17 19 19 17 16 16 16 16 16 18 19 21 21 22 24 25 25 22 16 15 14 10 7 7 9 9 9 8 8 8 7 7 6 6 6 5 5 7 9 8 6 5 6 6 6 7 8
34 35 35 34 33 34 34 34 35 36 36 37 37 35 34 32 29 29 31 29 28 29 28 26 23 22 21 22 22 21 20 18 16 16 16 16 16 17 18 20 20 18 17 17 18 18 18 19 20 21 21 22 23 26 26 18 13 17 15 7 3 3 4 6 9 9 9 9 9 8 7 7 6 5 6 8 8 7 5 5 6 6 6 7 8
31 33 34 35 36 36 36 36 36 36 37 37 36 35 33 30 28 28 29 28 26 27 26 24 23 22 21 23 23 22 20 18 16 16 17 16 16 17 19 21 21 19 17 18 20 19 19 20 21 22 22 23 23 26 25 16 14 16 9 3 2 2 1 5 9 9 8 9 10 10 8 8 6 5 6 8 8 6 5 4 5 5 6 7 7
33 36 38 39 39 38 37 36 36 36 36 36 35 33 31 29 27 26 26 25 24 25 25 23 23 23 24 25 24 22 20 18 16 17 17 17 17 18 20 21 21 19 17 17 19 19 19 20 20 22 22 22 23 27 25 17 16 16 9 4 3 1 2 5 7 7 8 8 9 11 10 9 7 6 6 7 8 6 5 4 5 5 6 6 6
35 39 41 41 39 37 36 36 37 37 37 36 35 33 32 32 31 28 27 25 24 26 27 26 25 25 25 25 23 22 20 18 17 17 17 18 18 18 20 21 20 18 16 15 17 18 19 19 20 21 21 22 22 25 27 20 17 18 13 7 5 3 3 7 5 2 6 7 7 10 11 11 9 7 6 7 7 5 4 5 5 5 5 5 5
37 40 39 38 38 36 36 37 37 37 38 36 35 34 34 34 34 32 30 28 25 26 28 28 27 26 25 24 23 22 20 19 18 18 18 18 19 20 20 20 19 17 15 15 16 17 18 18 19 20 20 22 23 25 28 24 19 19 16 11 8 4 5 9 6 3 3 5 7 10 11 12 11 9 8 8 7 4 4 5 5 5 4 4 4
37 37 36 38 40 39 38 38 37 37 37 36 35 36 36 35 34 32 29 29 28 26 27 27 27 26 25 23 23 22 20 19 18 18 19 18 19 21 22 21 19 17 16 15 16 16 17 18 18 20 20 22 23 24 27 27 23 21 19 14 9 6 7 10 9 7 4 2 5 7 11 13 11 10 8 7 8 6 5 6 6 5 4 4 4
36 36 38 40 40 39 37 37 37 37 36 36 36 37 36 35 34 31 29 28 28 27 27 26 26 26 25 24 23 22 21 20 19 19 19 19 20 21 22 22 20 18 17 16 16 16 17 17 18 19 20 22 23 24 25 27 26 23 20 17 11 8 9 9 10 9 4 3 3 4 9 12 10 10 8 7 7 6 7 8 6 5 4 3 3
36 38 39 38 37 36 36 38 38 37 36 36 37 37 36 35 35 33 30 28 27 27 27 26 26 26 25 24 23 22 21 21 20 20 21 21 21 20 21 22 20 19 18 17 17 16 15 16 17 18 20 21 23 24 25 24 25 24 21 20 15 12 10 7 9 10 5 3 3 4 10 12 9 7 7 7 6 6 9 10 7 5 4 3 3
34 35 35 34 35 36 37 38 37 36 36 37 37 37 36 36 36 34 32 31 29 29 28 27 27 26 26 25 24 22 22 22 22 22 22 21 22 22 22 21 20 19 18 17 16 15 14 15 16 18 20 21 22 24 24 22 21 22 22 21 19 16 13 10 12 14 10 5 3 5 10 12 8 6 6 5 6 10 12 9 7 5 4 3 3
Wind_Direction
174 168 168 167 166 167 167 164 157 152 149 149 147 143 142 142 142 141 140 139 136 133 130 127 125 123 122 122 122 128 134 129 127 128 130 130 126 126 126 128 139 145 147 143 131 126 131 135 121 111 113 111 108 108 112 115 116 114 110 109 108 108 105 101 99 96 95 96 97 91 84 82 79 78 77 77 74 73 75 73 70 66 65 65 64
172 169 167 166 166 168 168 164 159 154 152 151 148 145 144 143 144 142 141 138 136 133 129 126 123 121 118 119 118 124 130 127 125 127 130 132 130 129 128 134 143 146 148 140 129 124 121 123 120 117 117 112 111 114 117 116 115 113 111 110 107 106 104 103 101 97 96 96 94 89 85 83 81 79 77 76 72 70 72 70 68 67 67 65 66
168 169 166 165 167 168 169 165 160 156 154 153 149 149 146 144 144 143 141 138 137 134 132 128 125 121 119 119 116 118 125 127 126 126 128 131 132 130 132 135 136 139 138 129 123 120 115 113 113 118 118 114 114 116 116 115 114 114 113 110 107 106 104 102 101 100 98 96 94 93 91 87 85 82 79 77 72 72 72 69 67 69 72 69 68
167 169 165 166 169 168 170 165 161 158 157 156 152 151 147 145 145 145 142 140 140 138 135 131 127 123 119 119 117 117 121 126 129 129 129 130 133 134 134 130 127 128 122 115 116 116 113 113 113 115 117 117 119 116 114 115 114 113 109 107 104 104 104 104 102 100 99 99 98 97 97 95 94 88 83 77 70 75 76 71 69 69 69 67 64
167 167 164 168 170 170 170 166 163 159 159 158 155 153 149 147 147 146 144 143 142 138 135 132 129 124 118 118 120 122 123 126 131 132 131 132 134 136 135 129 123 118 111 109 110 115 113 114 115 114 116 122 126 121 116 113 108 105 100 97 97 98 100 102 104 103 100 101 101 98 98 97 94 90 83 78 72 75 78 74 71 68 65 62 58
167 166 165 170 171 171 170 166 164 161 162 159 157 154 150 150 150 148 146 145 142 137 135 134 129 123 119 119 121 125 129 132 135 135 135 135 133 135 135 132 127 113 109 109 106 111 111 111 113 116 117 122 128 123 114 108 100 96 91 90 91 95 98 100 104 106 103 102 102 99 97 95 91 86 80 79 77 77 76 73 69 66 62 60 55
167 166 168 173 173 171 171 168 165 162 163 161 159 156 153 153 152 149 149 147 140 137 135 134 129 125 121 120 123 127 134 137 139 138 136 136 133 134 135 136 133 120 115 111 107 109 109 109 112 115 116 120 123 114 104 98 95 94 91 93 97 104 106 107 107 107 108 106 102 99 99 98 96 91 84 81 79 77 73 68 65 63 63 59 53
166 167 171 176 174 171 173 170 166 165 164 162 161 157 156 155 152 151 151 148 140 137 139 138 131 128 126 122 124 125 128 135 139 139 137 137 134 133 136 137 134 127 121 114 110 111 110 110 111 113 115 115 110 101 98 96 96 97 95 99 109 113 117 124 118 112 111 109 104 102 104 101 98 94 87 82 79 75 69 65 62 59 58 53 46
167 169 173 178 174 171 175 172 169 167 164 164 163 160 160 157 155 155 155 150 143 144 145 140 132 132 131 123 122 120 123 134 139 139 139 138 133 133 134 136 133 129 124 117 114 115 113 111 111 112 114 111 104 100 98 96 98 100 97 101 108 105 116 128 124 118 114 111 107 102 103 97 92 92 88 85 82 75 68 63 59 52 48 45 43
168 170 175 179 173 173 177 172 171 168 165 165 165 163 162 161 158 159 159 151 147 150 145 137 134 138 135 127 125 126 126 135 140 139 141 140 136 136 136 136 134 130 125 120 118 119 117 113 113 113 113 109 104 100 92 90 93 96 97 104 108 102 111 123 122 118 114 112 108 101 98 90 87 88 86 86 79 68 59 55 55 49 43 43 47
168 171 176 178 173 174 177 173 171 168 167 167 167 165 164 164 162 162 160 153 154 151 143 138 142 144 139 134 130 133 133 136 141 141 141 142 139 139 138 138 137 131 125 123 122 123 119 115 115 114 112 108 100 92 88 88 87 90 96 113 118 109 115 124 121 118 115 112 108 102 96 89 87 84 80 80 70 58 51 48 48 47 45 46 50
167 170 175 176 173 177 177 172 171 169 169 169 170 167 166 167 166 165 161 159 158 150 145 143 148 152 144 138 133 138 141 141 144 146 145 140 138 139 140 142 141 130 124 126 127 125 118 116 116 115 113 104 94 88 88 87 84 85 91 119 130 123 125 126 120 116 114 111 106 100 97 92 87 77 73 72 62 53 51 48 46 47 48 48 50
166 170 174 173 173 180 177 171 172 170 171 172 172 169 169 170 169 167 165 163 156 150 150 149 154 153 142 139 135 138 145 149 149 151 149 139 136 139 142 142 137 131 132 134 130 124 118 118 117 116 113 101 91 87 89 88 88 84 87 116 133 130 129 125 117 114 112 109 104 100 98 92 81 75 73 67 57 52 52 51 51 53 54 54 55
166 169 172 172 174 181 176 173 174 171 173 175 174 171 171 172 171 171 170 164 157 157 155 155 159 148 141 143 137 135 144 151 151 153 149 139 138 142 143 141 135 139 144 139 130 124 120 119 119 119 113 99 91 89 90 93 93 89 90 109 127 129 127 120 112 110 108 104 98 94 93 88 81 75 69 60 56 56 56 58 60 62 63 63 62
167 169 171 172 174 179 178 175 173 172 175 178 177 173 173 175 174 174 173 166 162 164 159 160 158 147 150 150 141 138 143 149 148 150 150 145 145 146 147 144 141 148 150 141 132 126 121 121 122 122 114 100 90 90 94 98 100 96 97 106 118 123 122 116 109 106 103 99 95 90 86 81 76 71 64 60 61 63 63 67 69 69 68 66 64
168 168 169 172 174 178 180 177 174 174 178 181 179 176 176 177 177 177 174 170 169 167 163 164 156 151 163 154 145 145 145 149 150 152 154 152 149 150 152 151 151 154 151 143 135 130 126 125 126 124 116 101 91 92 96 103 107 104 104 108 112 114 112 108 104 103 99 97 93 87 83 78 75 71 69 68 70 71 69 71 73 75 73 70 67
168 168 169 173 176 177 179 177 176 177 180 183 181 178 179 179 180 179 177 173 172 169 166 166 158 160 169 157 152 151 149 151 154 158 158 156 152 153 155 155 157 156 151 145 139 135 131 130 129 126 117 104 92 92 97 104 112 111 109 108 105 103 99 96 95 97 95 93 90 87 85 82 81 78 76 74 75 74 72 73 75 78 75 71 69
168 170 171 174 175 176 178 177 178 180 182 184 182 182 183 182 181 181 179 175 174 173 170 168 163 166 166 159 158 153 154 156 157 160 160 158 155 156 156 156 157 156 153 148 144 140 137 137 132 126 117 107 95 92 96 101 110 112 111 107 102 98 95 93 93 95 93 91 90 89 87 85 84 81 79 77 77 77 75 77 76 73 68 63 59
168 171 172 175 175 176 178 178 181 182 183 185 183 183 185 185 184 183 180 178 178 177 173 170 168 169 167 164 164 157 159 159 159 161 161 160 158 158 160 159 158 158 156 151 149 147 144 143 136 127 118 109 95 91 94 97 106 110 111 108 104 99 94 92 94 97 94 91 91 90 88 85 84 83 82 79 77 78 79 79 75 67 57 47 37
169 173 174 176 175 177 179 180 184 185 186 186 183 183 185 187 186 185 182 181 182 179 176 173 172 173 173 170 168 165 163 160 160 161 161 164 162 161 163 163 164 164 160 156 154 153 151 149 141 130 121 112 94 87 91 97 105 110 115 111 106 99 91 91 95 98 95 94 93 91 88 85 83 83 84 82 80 84 85 80 72 60 44 32 24
174 177 177 176 176 179 180 182 185 187 189 186 184 183 184 187 188 188 185 185 183 182 179 176 178 178 176 173 173 171 167 164 162 161 165 169 168 167 167 169 172 170 164 162 161 158 157 155 147 134 124 113 93 84 89 100 113 118 123 116 107 97 93 96 99 101 100 98 95 92 89 85 82 83 85 86 86 86 83 72 60 47 35 27 24
178 180 181 179 178 180 181 184 185 189 190 187 186 184 185 187 190 189 188 188 184 184 183 181 184 182 177 176 179 176 169 167 164 161 164 166 171 172 172 175 179 175 169 167 167 164 163 160 153 141 131 115 95 92 95 107 121 124 126 120 107 99 100 105 106 106 102 98 95 94 93 87 83 84 84 86 87 77 66 55 45 37 35 32 38
180 183 184 182 181 181 183 186 187 189 190 188 188 186 186 189 191 190 190 190 186 189 189 186 186 182 181 181 179 176 170 168 164 160 157 155 162 170 174 179 180 176 173 173 172 169 168 165 158 149 139 120 103 107 108 115 125 128 128 119 108 106 109 110 109 108 104 101 97 95 93 88 82 79 81 82 78 59 49 46 40 40 47 53 62
182 182 184 185 184 184 185 188 189 190 191 189 189 187 187 191 193 190 192 191 188 193 193 187 182 178 177 178 174 170 168 165 164 162 157 152 153 160 167 173 175 176 176 177 177 175 174 170 164 158 149 132 124 125 123 124 126 130 128 118 112 113 114 111 110 108 107 107 100 96 95 91 81 77 85 86 69 47 48 49 51 58 67 74 77
181 181 184 186 187 186 187 189 190 191 192 191 190 188 188 193 193 192 194 192 191 194 193 185 176 171 167 166 166 163 164 164 166 165 159 156 153 154 159 163 168 173 178 179 181 181 180 177 172 168 157 141 138 136 133 135 135 134 131 121 118 118 115 110 106 103 104 103 98 98 96 96 91 84 83 83 71 65 66 65 71 76 77 79 79
183 184 185 186 188 188 189 190 191 193 193 192 190 189 190 193 194 193 195 195 196 195 190 184 173 167 162 159 158 158 162 165 167 165 160 160 159 156 155 158 163 172 179 182 186 187 187 184 173 165 155 148 151 148 140 144 144 140 134 126 123 121 115 109 102 99 99 97 96 97 95 99 100 94 85 85 81 74 78 79 80 81 80 79 77
191 190 187 187 189 190 191 191 192 193 194 194 191 189 191 195 195 195 197 197 199 197 189 182 173 168 164 160 157 156 158 160 164 164 162 163 164 164 159 158 161 168 174 177 183 183 182 176 164 160 161 162 166 164 151 150 150 145 138 133 129 123 115 108 101 97 97 97 96 94 99 105 107 104 96 92 85 79 84 86 84 81 78 76 75
199 196 191 190 190 190 192 192 193 194 195 194 192 190 192 197 197 195 199 197 199 200 191 180 174 171 168 166 163 160 158 156 157 156 154 155 158 166 167 166 164 163 164 164 166 165 165 160 155 165 175 175 172 171 163 156 154 151 145 138 132 125 117 109 101 97 97 96 92 88 92 99 105 107 101 95 90 88 88 86 87 84 79 77 75
201 200 195 194 192 192 193 193 194 194 195 194 192 192 193 197 197 195 198 197 199 201 194 183 179 176 174 174 173 170 166 161 157 153 148 146 148 157 163 164 162 160 159 156 154 151 151 149 148 162 170 170 167 167 165 159 156 154 150 143 136 129 120 112 104 100 97 91 88 87 87 94 101 101 98 97 95 95 93 90 89 86 84 81 78
197 199 198 196 195 194 194 195 195 195 196 195 193 193 193 197 198 196 196 197 202 201 196 189 185 185 183 182 181 178 174 169 166 162 155 152 153 157 159 159 159 159 157 154 152 148 147 146 142 148 153 152 154 160 162 158 157 155 152 146 139 131 123 116 109 103 98 90 87 88 88 95 102 101 99 98 97 98 97 96 92 89 86 83 80
194 197 199 197 196 195 195 196 196 196 197 196 194 194 194 197 198 197 195 196 200 200 197 194 190 190 189 187 186 184 183 179 177 175 167 166 170 171 172 171 169 168 165 161 159 155 154 152 148 151 151 146 148 156 161 159 157 156 154 148 141 134 128 122 115 108 101 91 86 91 97 102 106 105 103 100 99 99 98 96 94 91 87 82 78
193 196 197 196 195 196 196 196 196 196 197 197 196 195 195 197 199 198 196 195 198 200 198 197 193 189 190 191 189 187 189 189 188 187 181 181 185 188 190 187 185 185 178 172 170 169 167 165 163 163 157 151 150 156 162 161 157 156 154 150 145 139 133 127 120 113 102 92 89 93 105 113 113 110 107 104 101 100 98 96 92 88 84 79 73
193 194 195 195 196 197 196 196 197 197 199 198 196 197 196 197 200 198 197 196 197 200 199 198 193 187 189 193 194 193 194 197 197 197 197 197 200 202 201 198 197 198 190 183 179 177 177 173 167 170 168 161 157 158 163 163 158 157 155 152 148 142 136 131 124 115 104 97 97 99 109 121 120 116 113 109 106 103 100 97 93 87 82 75 68
189 191 195 196 197 197 196 196 197 197 199 199 198 197 197 198 200 198 196 196 199 200 200 198 191 187 192 197 201 200 200 203 204 206 209 212 217 214 210 206 204 203 194 187 183 178 178 174 169 174 173 169 165 164 167 163 159 158 156 155 152 146 142 137 126 115 106 101 96 98 110 121 122 121 120 117 115 111 107 101 94 86 79 71 65
187 189 194 195 197 197 196 197 198 198 198 199 199 198 198 199 200 198 195 197 200 201 201 197 191 190 196 201 206 206 206 207 208 213 217 224 227 223 219 211 207 202 191 186 183 179 179 174 174 177 170 168 168 166 170 165 160 160 159 158 155 151 150 143 131 118 105 98 96 101 109 113 115 117 117 113 108 106 107 103 94 86 78 70 66
188 188 191 193 197 198 197 197 198 198 199 200 200 199 200 201 202 200 197 200 201 201 201 197 192 194 200 205 208 209 210 211 214 218 222 230 230 227 222 214 209 199 188 187 185 184 183 172 174 185 174 166 168 168 170 167 162 161 161 161 158 157 152 138 127 115 102 97 101 104 106 108 109 110 108 105 100 95 94 94 93 89 82 72 67
190 187 189 191 194 196 197 198 199 199 200 201 201 201 202 204 205 202 200 204 204 202 201 198 195 198 204 208 211 214 215 216 220 223 227 233 233 230 220 212 209 199 189 188 188 188 187 173 167 181 183 172 169 168 167 166 163 161 161 162 158 155 147 133 124 113 108 109 108 107 107 106 104 103 101 99 97 95 93 91 89 87 80 71 63
191 189 189 190 191 194 197 198 200 201 200 201 201 202 204 206 208 205 203 206 207 205 202 201 200 202 207 210 213 218 220 221 222 225 231 233 230 226 215 207 205 200 193 189 190 187 185 182 170 172 182 178 173 169 166 164 161 160 160 160 156 150 141 134 130 121 119 116 113 113 111 107 103 100 99 98 96 95 94 90 85 81 76 69 59
192 190 189 189 190 193 196 198 200 201 200 199 199 201 204 205 207 206 205 208 209 207 205 204 204 207 210 212 217 220 223 224 224 226 231 229 223 218 210 203 201 200 194 190 190 184 178 184 177 170 172 174 174 170 165 160 157 157 158 154 151 150 147 144 139 132 129 123 123 124 120 113 108 104 102 103 101 97 93 87 80 76 71 64 55
191 190 188 189 190 192 194 197 200 200 197 196 197 199 201 202 203 202 204 207 208 208 207 206 207 210 214 217 220 221 223 225 226 229 229 224 218 214 208 200 199 198 195 193 191 186 182 182 180 175 169 164 164 165 163 159 152 146 149 151 153 156 158 156 152 146 140 135 137 138 132 125 116 111 107 108 109 102 95 86 76 70 61 55 53
189 189 190 191 192 193 194 196 198 198 195 194 195 197 197 197 197 198 201 204 205 207 207 208 210 213 217 222 223 221 223 226 228 229 225 219 214 211 206 198 198 197 196 196 192 187 186 185 179 174 171 163 157 159 162 159 147 135 136 146 156 165 169 167 165 164 162 159 161 159 150 140 129 120 110 109 115 108 97 83 64 55 50 48 52
188 191 192 192 193 195 196 196 197 198 197 196 195 197 197 197 195 196 199 201 202 205 206 208 212 216 219 222 221 220 223 227 228 226 221 216 212 208 203 198 196 195 194 192 190 186 185 187 180 170 169 168 163 162 164 161 148 142 142 135 137 161 172 176 178 180 184 183 179 175 166 156 145 133 114 111 119 114 99 72 48 44 47 52 57
189 191 192 192 193 196 198 198 198 198 199 199 197 198 199 199 198 197 200 201 202 205 208 211 213 217 219 218 218 219 223 227 225 222 217 213 210 207 201 197 195 194 191 187 187 188 185 187 187 178 170 166 165 167 170 170 161 150 141 132 138 150 173 194 194 195 198 196 193 187 178 167 153 136 125 121 121 116 99 66 47 50 55 61 64
187 190 193 193 195 198 199 199 200 200 201 201 199 199 198 199 199 200 203 204 203 205 209 213 215 217 216 214 216 219 223 226 223 219 215 210 208 206 200 196 195 195 192 188 188 190 189 188 189 187 179 169 167 172 178 184 178 163 142 103 130 135 229 216 198 199 202 200 200 196 186 178 166 147 137 129 125 121 105 74 58 65 68 70 69
187 191 194 195 197 200 199 199 200 201 202 202 200 198 197 195 195 195 198 201 201 203 205 207 210 212 211 212 214 218 221 224 222 217 212 208 208 206 200 195 193 195 195 194 193 193 193 193 192 193 190 184 179 180 185 192 192 189 180 138 129 160 247 186 175 196 206 203 203 200 197 192 182 170 158 146 139 134 117 95 80 81 81 78 69
190 193 196 196 197 199 199 199 200 201 203 203 200 198 196 193 190 187 187 188 190 196 201 202 203 204 206 210 213 215 218 219 219 217 210 207 207 204 200 196 193 193 195 197 199 197 196 197 199 199 201 202 196 188 191 196 197 200 201 191 187 210 186 156 148 192 204 207 208 202 203 200 198 197 188 176 167 154 127 114 101 95 94 83 67
194 195 195 195 196 197 199 199 200 201 202 202 200 198 196 195 193 191 189 188 188 195 202 204 204 204 205 209 211 211 213 214 215 217 214 208 206 203 199 197 194 194 195 200 203 203 202 202 206 208 209 210 206 199 198 198 197 203 208 207 199 205 180 166 166 165 174 213 216 203 202 202 206 209 208 206 203 192 146 135 123 111 109 90 66
196 192 191 192 195 197 198 198 199 201 202 201 200 199 198 196 195 194 193 193 194 197 200 203 205 205 206 208 209 208 210 211 212 216 217 212 208 204 199 198 197 197 200 205 207 207 206 206 209 214 216 216 216 214 208 202 200 204 207 207 209 212 196 190 192 176 140 176 209 209 207 206 211 215 223 223 210 203 167 147 139 129 119 97 70
194 190 191 193 195 195 195 196 198 200 201 200 200 200 200 198 196 195 194 195 198 199 199 201 203 205 206 205 206 207 207 208 210 213 216 215 212 206 201 199 198 201 205 208 210 210 209 211 213 218 220 220 222 223 218 211 209 209 207 207 209 200 195 204 202 185 145 144 186 216 205 205 215 220 225 212 200 200 172 153 145 138 121 93 67
194 192 192 192 192 192 192 194 197 199 199 200 200 200 200 199 197 196 195 194 195 197 197 198 201 203 203 202 204 205 205 205 206 209 213 213 211 206 203 201 201 207 210 211 213 212 217 223 226 229 227 223 222 223 223 222 219 218 216 211 203 191 188 194 198 194 174 145 167 198 196 197 202 203 209 208 200 183 164 153 144 141 122 91 60
193 191 189 190 190 190 191 193 196 197 198 199 200 199 199 199 199 198 196 193 192 192 192 194 197 199 199 200 202 204 204 204 204 206 208 207 205 204 203 203 206 212 214 217 219 219 230 236 233 234 232 225 222 222 223 225 225 224 223 220 215 211 208 207 208 204 196 175 160 178 189 190 187 179 181 193 177 156 152 147 142 138 116 95 57